When you browse on this site, cookies collect data to enhance your experience and personalize the content and advertising you see.
Visit our Privacy Policy to learn more. By continuing to use the site, you agree to this use of cookies and data.
  • In Hungary
  • List of Countries
  • For 7 days
  • Water Temperature
  • Weather Map
  • News
  • Weather Widgets
  • user-avatar
    Login

    Hourly Weather Tlyustenhabl

    Today, 15 October, Tuesday

    Time Temperature Precipitation Wind Pressure Humidity
    00:00 +15°C° 0 mm 1 mps 764 mmHg 58%
    01:00 +15°C° 0 mm 1 mps 764 mmHg 59%
    02:00 +15°C° 0 mm 1 mps 764 mmHg 60%
    03:00 +14°C° 0 mm 1 mps 764 mmHg 61%
    04:00 +14°C° 0 mm 1 mps 763 mmHg 61%
    05:00 +14°C° 0 mm 1 mps 763 mmHg 62%
    06:00 +14°C° 0 mm 1 mps 763 mmHg 62%
    07:00 +15°C° 0 mm 1 mps 763 mmHg 58%
    08:00 +15°C° 0 mm 0 mps 764 mmHg 54%
    09:00 +17°C° 0 mm 0 mps 764 mmHg 50%
    10:00 +21°C° 0 mm 1 mps 763 mmHg 45%
    11:00 +23°C° 0 mm 1 mps 763 mmHg 40%
    12:00 +25°C° 0 mm 1 mps 763 mmHg 36%
    13:00 +25°C° 0 mm 1 mps 763 mmHg 35%
    14:00 +26°C° 0 mm 1 mps 763 mmHg 34%
    15:00 +27°C° 0 mm 1 mps 762 mmHg 33%
    16:00 +25°C° 0 mm 1 mps 762 mmHg 37%
    17:00 +23°C° 0 mm 1 mps 762 mmHg 41%
    18:00 +21°C° 0 mm 1 mps 762 mmHg 45%
    19:00 +21°C° 0 mm 1 mps 762 mmHg 47%
    20:00 +20°C° 0 mm 1 mps 762 mmHg 49%
    21:00 +19°C° 0 mm 1 mps 762 mmHg 50%
    22:00 +19°C° 0 mm 1 mps 762 mmHg 52%
    23:00 +18°C° 0 mm 1 mps 762 mmHg 54%

    Tomorrow, 16 October, Wednesday

    Time Temperature Precipitation Wind Pressure Humidity
    00:00 +16°C° 0 mm 1 mps 762 mmHg 55%
    01:00 +16°C° 0 mm 1 mps 762 mmHg 57%
    02:00 +16°C° 0 mm 1 mps 762 mmHg 58%
    03:00 +15°C° 0 mm 1 mps 762 mmHg 59%
    04:00 +15°C° 0 mm 1 mps 762 mmHg 61%
    05:00 +14°C° 0 mm 1 mps 762 mmHg 62%
    06:00 +14°C° 0 mm 1 mps 762 mmHg 63%
    07:00 +15°C° 0 mm 1 mps 762 mmHg 59%
    08:00 +18°C° 0 mm 1 mps 762 mmHg 56%
    09:00 +18°C° 0 mm 2 mps 762 mmHg 52%
    10:00 +20°C° 0 mm 2 mps 762 mmHg 47%
    11:00 +23°C° 0 mm 2 mps 762 mmHg 43%
    12:00 +25°C° 0 mm 3 mps 762 mmHg 38%
    13:00 +25°C° 0 mm 3 mps 762 mmHg 37%
    14:00 +26°C° 0 mm 3 mps 761 mmHg 36%
    15:00 +26°C° 0 mm 3 mps 761 mmHg 34%
    16:00 +25°C° 0 mm 3 mps 761 mmHg 39%
    17:00 +22°C° 0 mm 3 mps 761 mmHg 44%
    18:00 +20°C° 0 mm 3 mps 761 mmHg 49%
    19:00 +20°C° 0 mm 3 mps 761 mmHg 51%
    20:00 +19°C° 0 mm 3 mps 761 mmHg 54%
    21:00 +18°C° 0 mm 4 mps 761 mmHg 56%
    22:00 +18°C° 0 mm 3 mps 761 mmHg 57%
    23:00 +17°C° 0 mm 3 mps 761 mmHg 59%

    Day after tomorrow, 17 October, Thursday

    Time Temperature Precipitation Wind Pressure Humidity
    00:00 +17°C° 0 mm 3 mps 761 mmHg 60%
    01:00 +16°C° 0 mm 3 mps 761 mmHg 62%
    02:00 +14°C° 0 mm 3 mps 761 mmHg 64%
    03:00 +15°C° 0 mm 2 mps 761 mmHg 67%
    04:00 +15°C° 0 mm 2 mps 761 mmHg 70%
    05:00 +14°C° 0 mm 2 mps 761 mmHg 73%
    06:00 +14°C° 0 mm 2 mps 761 mmHg 76%
    07:00 +15°C° 0 mm 2 mps 761 mmHg 73%
    08:00 +16°C° 0 mm 2 mps 761 mmHg 69%
    09:00 +17°C° 0 mm 2 mps 761 mmHg 66%
    10:00 +19°C° 0 mm 2 mps 761 mmHg 59%
    11:00 +21°C° 0 mm 2 mps 761 mmHg 53%
    12:00 +24°C° 0 mm 1 mps 761 mmHg 47%
    13:00 +25°C° 0 mm 1 mps 761 mmHg 44%
    14:00 +25°C° 0 mm 1 mps 760 mmHg 42%
    15:00 +26°C° 0 mm 1 mps 760 mmHg 40%
    16:00 +24°C° 0 mm 1 mps 760 mmHg 45%
    17:00 +23°C° 0 mm 1 mps 760 mmHg 50%
    18:00 +21°C° 0 mm 1 mps 760 mmHg 55%
    19:00 +20°C° 0 mm 1 mps 760 mmHg 57%
    20:00 +20°C° 0 mm 1 mps 760 mmHg 59%
    21:00 +19°C° 0 mm 1 mps 760 mmHg 61%
    22:00 +19°C° 0 mm 1 mps 760 mmHg 63%
    23:00 +18°C° 0 mm 1 mps 760 mmHg 65%

    18 October, Friday

    Time Temperature Precipitation Wind Pressure Humidity
    00:00 +18°C° 0 mm 1 mps 760 mmHg 66%
    01:00 +16°C° 0 mm 1 mps 760 mmHg 67%
    02:00 +16°C° 0 mm 1 mps 760 mmHg 69%
    03:00 +16°C° 0 mm 1 mps 760 mmHg 70%
    04:00 +15°C° 0 mm 1 mps 760 mmHg 70%
    05:00 +15°C° 0 mm 1 mps 760 mmHg 71%
    06:00 +15°C° 0 mm 1 mps 760 mmHg 71%
    07:00 +16°C° 0 mm 1 mps 760 mmHg 66%
    08:00 +18°C° 0 mm 1 mps 760 mmHg 61%
    09:00 +20°C° 0 mm 1 mps 760 mmHg 55%
    10:00 +21°C° 0 mm 1 mps 760 mmHg 50%
    11:00 +23°C° 0 mm 1 mps 760 mmHg 44%
    12:00 +25°C° 0 mm 1 mps 760 mmHg 39%
    13:00 +26°C° 0 mm 2 mps 760 mmHg 38%
    14:00 +26°C° 0 mm 2 mps 760 mmHg 37%
    15:00 +27°C° 0 mm 2 mps 760 mmHg 35%
    16:00 +25°C° 0 mm 2 mps 760 mmHg 41%
    17:00 +23°C° 0 mm 2 mps 760 mmHg 46%
    18:00 +21°C° 0 mm 1 mps 760 mmHg 51%
    19:00 +20°C° 0 mm 1 mps 760 mmHg 54%
    20:00 +20°C° 0 mm 1 mps 760 mmHg 57%
    21:00 +19°C° 0 mm 1 mps 760 mmHg 59%
    22:00 +18°C° 0 mm 1 mps 760 mmHg 62%
    23:00 +18°C° 0 mm 1 mps 760 mmHg 64%

    19 October, Saturday

    Time Temperature Precipitation Wind Pressure Humidity
    00:00 +16°C° 0 mm 1 mps 760 mmHg 66%
    01:00 +16°C° 0 mm 1 mps 761 mmHg 68%
    02:00 +15°C° 0 mm 1 mps 761 mmHg 71%
    03:00 +15°C° 0 mm 1 mps 761 mmHg 73%
    04:00 +15°C° 0 mm 1 mps 761 mmHg 75%
    05:00 +14°C° 0 mm 1 mps 761 mmHg 77%
    06:00 +14°C° 0 mm 1 mps 762 mmHg 79%
    07:00 +15°C° 0 mm 1 mps 762 mmHg 74%
    08:00 +16°C° 0 mm 1 mps 762 mmHg 69%
    09:00 +19°C° 0 mm 1 mps 762 mmHg 65%
    10:00 +19°C° 0 mm 2 mps 762 mmHg 59%
    11:00 +21°C° 0 mm 2 mps 762 mmHg 52%
    12:00 +23°C° 0 mm 2 mps 762 mmHg 46%
    13:00 +24°C° 0 mm 3 mps 762 mmHg 43%
    14:00 +25°C° 0 mm 3 mps 762 mmHg 40%
    15:00 +25°C° 0 mm 3 mps 762 mmHg 37%
    16:00 +24°C° 0 mm 3 mps 762 mmHg 41%
    17:00 +21°C° 0 mm 3 mps 762 mmHg 45%
    18:00 +20°C° 0 mm 3 mps 762 mmHg 49%
    19:00 +19°C° 0 mm 3 mps 762 mmHg 51%
    20:00 +18°C° 0 mm 3 mps 762 mmHg 53%
    21:00 +17°C° 0 mm 3 mps 762 mmHg 55%
    22:00 +17°C° 0 mm 3 mps 762 mmHg 57%
    23:00 +16°C° 0 mm 2 mps 762 mmHg 60%

    20 October, Sunday

    Time Temperature Precipitation Wind Pressure Humidity
    00:00 +16°C° 0 mm 2 mps 762 mmHg 62%
    01:00 +15°C° 0 mm 2 mps 762 mmHg 65%
    02:00 +15°C° 0 mm 2 mps 762 mmHg 67%
    03:00 +14°C° 0 mm 1 mps 762 mmHg 70%
    04:00 +14°C° 0 mm 1 mps 762 mmHg 72%
    05:00 +14°C° 0 mm 1 mps 762 mmHg 73%
    06:00 +13°C° 0 mm 1 mps 762 mmHg 75%
    07:00 +15°C° 0 mm 1 mps 762 mmHg 70%
    08:00 +16°C° 0 mm 1 mps 762 mmHg 65%
    09:00 +17°C° 0 mm 2 mps 762 mmHg 60%
    10:00 +19°C° 0 mm 2 mps 762 mmHg 55%
    11:00 +21°C° 0 mm 2 mps 762 mmHg 49%
    12:00 +22°C° 0 mm 3 mps 762 mmHg 43%
    13:00 +24°C° 0 mm 3 mps 762 mmHg 43%
    14:00 +24°C° 0 mm 3 mps 762 mmHg 43%
    15:00 +25°C° 0 mm 3 mps 762 mmHg 43%
    16:00 +22°C° 0 mm 3 mps 762 mmHg 47%
    17:00 +21°C° 0 mm 3 mps 762 mmHg 50%
    18:00 +20°C° 0 mm 3 mps 762 mmHg 53%
    19:00 +19°C° 0 mm 3 mps 762 mmHg 55%
    20:00 +18°C° 0 mm 4 mps 762 mmHg 57%
    21:00 +17°C° 0 mm 4 mps 762 mmHg 59%
    22:00 +17°C° 0 mm 4 mps 762 mmHg 62%
    23:00 +15°C° 0 mm 4 mps 762 mmHg 64%
    Show more